Главная страница
METAR-TAF:

METAR-TAF

Аэропорты :

Военно-морская академия США

Аннаполис, Мэриленд, США

широта: 38-59-29N, долгота: 076-29-00W, высота над уровнем моря: 2 м

Текущие метеонаблюдения

Эта сводка был подготовлена 14 минут назад, в 07:40 UTC
Штиль
Температура 3°C
Влажность 87%
Давление 1023 hPa
Видимость: 4.0 км
Сплошная облачность на высоте 5500 фута
дымка

METAR: KNAK 190740Z AUTO 00000KT 2 1/2SM BR OVC055 03/01 A3021 RMK AO2 T00330011

Время: 02:54 (07:54 UTC)


TAF: отсутствует

Метеонаблюдения и прогнозы для более 4000 аэропортов (сводки METAR и TAF).

Имеющиеся станции представлены на карте желтыми и красными точками.

Чтобы увидеть название станции, наведите на нее мышь.

Затем щелкните, чтобы увидеть метеонаблюдения и метеопрогнозы.

Управление картой: чтобы увеличить масштаб, щелкните зеленые кнопки с черным крестиком; чтобы уменьшить масштаб, щелкните зеленую кнопку с тире; для просмотра соседних карт щелкайте зеленые стрелки.


METAR-TAF: